Location: Bothell
(47.7630°N, 122.2040°W)
Time: 20:31:49
(UTC-08:00)

Amateur Radio Satellites - All Passes

Search period start: 10 February 2016 20:01
Search period end: 11 February 2016 20:01
Location: Bothell, 47.7630°N, 122.2040°W

Satellite Date Start Highest point End Downlink Frequencies (MHz)
Time Altitude Azimuth
Oscar 11 10 Feb 20:02:26 20:06:26 38° 69° (ENE) 20:10:27 145.826/435.025
PRISM 10 Feb 20:06:30 20:10:41 60° 102° (ESE) 20:14:47 437.425
UWE-3 10 Feb 20:06:50 20:10:52 46° 71° (ENE) 20:14:52 435.000/436.395/437.385
CUTE 1.7 + AOD 2 10 Feb 20:06:50 20:10:50 41° 262° (W) 20:14:52 437.475
CINEMA 3 10 Feb 20:07:51 20:12:18 50° 260° (W) 20:16:36 145.822/145.860
CUBEBUG 2 10 Feb 20:08:01 20:12:15 64° 74° (ENE) 20:16:26 437.445
PCSat 10 Feb 20:08:01 20:13:17 51° 244° (WSW) 20:18:30 145.827
SEEDS 10 Feb 20:11:19 20:15:22 48° 261° (W) 20:19:28 437.485
ISS 10 Feb 20:22:48 20:26:02 66° 19° (NNE) 20:29:16 145.825
AAUSAT CUBESAT 2 10 Feb 20:22:57 20:27:02 58° 260° (W) 20:31:10 437.432
BEESAT 2 10 Feb 20:26:18 20:26:30 10° 340° (NNW) 20:26:42 435.950
AIST 1 10 Feb 20:42:44 20:46:25 26° 70° (ENE) 20:50:03
AIST 2 10 Feb 20:47:29 20:50:49 23° 324° (NW) 20:54:11 435.215
CANX-2 10 Feb 20:54:27 20:56:35 14° 272° (W) 20:58:43 2200.000
GONETS M04 10 Feb 20:56:06 21:04:31 52° 271° (W) 21:12:56
ZACube-1 10 Feb 20:58:24 21:02:36 73° 258° (WSW) 21:06:46 437.345
HO-68 10 Feb 21:03:55 21:09:27 23° 270° (W) 21:15:01 435.675
FUNcube-1 10 Feb 21:06:59 21:11:08 62° 259° (W) 21:15:15 145.935
HUMSAT D 10 Feb 21:08:19 21:12:12 44° 71° (ENE) 21:16:07 437.325/437.525
VELOX 1 10 Feb 21:15:41 21:18:12 15° 58° (ENE) 21:20:44 145.980
UNISAT 6 10 Feb 21:19:02 21:20:01 11° 87° (E) 21:21:00 437.425
DELFI C3 10 Feb 21:28:49 21:32:39 46° 261° (W) 21:36:33 145.870
50 SAT 10 Feb 21:29:57 21:32:34 18° 64° (ENE) 21:35:11 437.505
AISAT 10 Feb 21:31:32 21:34:54 21° 62° (ENE) 21:38:17 437.250
Cosmos 2499 10 Feb 21:32:11 21:40:32 63° 268° (W) 21:48:13 435.465 / 435.565
RS-15 10 Feb 21:33:30 21:44:48 48° 249° (WSW) 21:56:16 29.354- 29.394
UKube-1 10 Feb 21:38:27 21:41:45 22° 62° (ENE) 21:45:03 .
Oscar 11 10 Feb 21:39:14 21:42:42 23° 267° (W) 21:46:11 145.826/435.025
PRISM 10 Feb 21:42:57 21:45:34 16° 300° (WNW) 21:48:11 437.425
STRAND 1 10 Feb 21:43:15 21:44:29 11° 309° (NW) 21:45:44 437.568
UWE-3 10 Feb 21:44:36 21:47:36 19° 268° (W) 21:50:35 435.000/436.395/437.385
CUBEBUG 2 10 Feb 21:47:07 21:49:20 14° 271° (W) 21:51:31 437.445
CUBEBUG 1 10 Feb 21:47:50 21:51:23 24° 64° (ENE) 21:54:56 437.445
DX 1 10 Feb 21:51:40 21:55:35 32° 66° (ENE) 21:59:31 434.975-435.025
ESTCUBE 1 10 Feb 21:56:45 22:00:56 37° 68° (ENE) 22:05:08 437.505/2401.250
ISS 10 Feb 21:59:29 22:02:19 27° 217° (SW) 22:05:07 145.825
ANTELSAT 10 Feb 22:01:45 22:05:32 29° 95° (E) 22:09:23 437.575/2403.000
TIGRISAT 10 Feb 22:08:11 22:12:04 32° 96° (E) 22:16:00 435.000
AIST 1 10 Feb 22:20:09 22:24:05 33° 269° (W) 22:27:57
HUMSAT D 10 Feb 22:45:13 22:48:06 18° 268° (W) 22:50:58 437.325/437.525
VELOX 1 10 Feb 22:49:39 22:54:08 76° 256° (WSW) 22:58:37 145.980
BUGSAT 1 10 Feb 22:50:58 22:52:11 11° 88° (E) 22:53:24 437.445
POLYITAN 1 10 Feb 22:52:53 22:56:23 25° 94° (E) 22:59:52 437.675
UNISAT 6 10 Feb 22:53:00 22:57:21 87° 284° (WNW) 23:01:47 437.425
QB50P2 10 Feb 22:53:27 22:57:00 26° 95° (E) 23:00:33 145.880/145.840
GONETS M04 10 Feb 22:58:17 22:59:06 10° 293° (WNW) 22:59:56
50 SAT 10 Feb 23:02:51 23:06:20 39° 262° (W) 23:09:52 437.505
AISAT 10 Feb 23:06:46 23:11:05 49° 260° (W) 23:15:28 437.250
UKube-1 10 Feb 23:13:21 23:17:32 46° 260° (W) 23:21:44 .
BEESAT 3 10 Feb 23:17:46 23:19:36 13° 26° (NNE) 23:21:26 437.485
SPROUT 10 Feb 23:20:26 23:24:43 72° 74° (ENE) 23:29:01 437.525
POPSAT HIP 1 10 Feb 23:22:33 23:26:39 48° 100° (E) 23:30:43 437.405
CUBEBUG 1 10 Feb 23:23:16 23:27:28 42° 262° (W) 23:31:42 437.445
TISAT 1 10 Feb 23:25:32 23:29:20 33° 67° (ENE) 23:33:07 437.305
NANOSAT C BR1 10 Feb 23:26:30 23:30:37 52° 100° (E) 23:34:43 145.865
DUCHIFAT 1 10 Feb 23:27:25 23:31:31 51° 100° (E) 23:35:35 145.980
DX 1 10 Feb 23:27:57 23:31:47 29° 264° (W) 23:35:39 434.975-435.025
Cosmos 2499 10 Feb 23:28:20 23:31:43 13° 291° (WNW) 23:35:01 435.465 / 435.565
ESTCUBE 1 10 Feb 23:34:00 23:37:50 27° 266° (W) 23:41:42 437.505/2401.250
QB50P1 10 Feb 23:35:02 23:39:14 67° 102° (ESE) 23:43:25 145.935-145.965
ANTELSAT 10 Feb 23:38:26 23:42:17 32° 293° (WNW) 23:46:12 437.575/2403.000
BEESAT 2 10 Feb 23:43:53 23:46:06 14° 28° (NNE) 23:48:18 435.950
TIGRISAT 10 Feb 23:44:59 23:48:44 29° 293° (WNW) 23:52:31 435.000
Cosmos 2491 10 Feb 23:50:26 23:55:29 16° 50° (NE) 00:00:30 435.465 / 435.565
SWISSCUBE 10 Feb 23:59:41 00:03:09 20° 60° (ENE) 00:06:38 437.505
CUSAT 1 11 Feb 00:09:36 00:15:20 22° 81° (E) 00:20:57 437.405
Oscar 19 11 Feb 00:14:09 00:16:07 12° 86° (E) 00:18:05 437.125/150
BUGSAT 1 11 Feb 00:24:03 00:28:07 73° 285° (WNW) 00:32:07 437.445
POLYITAN 1 11 Feb 00:28:28 00:32:17 35° 292° (WNW) 00:36:06 437.675
QB50P2 11 Feb 00:29:05 00:32:52 33° 293° (WNW) 00:36:40 145.880/145.840
PHONESAT 2.4 11 Feb 00:29:16 00:30:04 11° 156° (SSE) 00:30:51 2401.200-2431.200
UNISAT 6 11 Feb 00:31:52 00:33:26 12° 303° (WNW) 00:35:00 437.425
ITUPSAT 1 11 Feb 00:36:03 00:40:23 36° 66° (ENE) 00:44:47 437.325
BEESAT 11 Feb 00:43:32 00:48:01 43° 68° (ENE) 00:52:32 436.000
DANDE 11 Feb 00:52:00 00:58:25 27° 82° (E) 01:05:05 436.750
BEESAT 3 11 Feb 00:54:21 00:58:16 52° 48° (NE) 01:02:08 437.485
Gurwin Techsat 1B 11 Feb 00:55:07 00:56:50 11° 85° (E) 00:58:34 435.225
POPSAT HIP 1 11 Feb 00:59:08 01:02:08 19° 298° (WNW) 01:05:07 437.405
SPROUT 11 Feb 00:59:13 01:01:12 13° 272° (W) 01:03:11 437.525
TISAT 1 11 Feb 01:01:27 01:05:02 27° 265° (W) 01:08:38 437.305
NANOSAT C BR1 11 Feb 01:03:09 01:06:01 18° 298° (WNW) 01:08:52 145.865
DUCHIFAT 1 11 Feb 01:04:00 01:06:53 18° 298° (WNW) 01:09:46 145.980
JAS-2 11 Feb 01:05:24 01:10:05 26° 91° (E) 01:14:28 435.910
QB50P1 11 Feb 01:12:09 01:14:32 15° 300° (WNW) 01:16:55 145.935-145.965
BEESAT 2 11 Feb 01:20:48 01:24:47 62° 49° (NE) 01:28:44 435.950
ITAMSAT 1 11 Feb 01:26:03 01:27:36 11° 86° (E) 01:29:09 435.822/435.867
SWISSCUBE 11 Feb 01:35:50 01:40:33 59° 259° (WSW) 01:45:18 437.505
STARS 11 Feb 01:44:20 01:47:01 16° 59° (ENE) 01:49:43 437.465
Cosmos 2491 11 Feb 01:45:45 01:54:28 63° 76° (ENE) 02:03:09 435.465 / 435.565
AIST 2 11 Feb 01:48:17 01:51:31 21° 35° (NE) 01:54:44 435.215
CUSAT 1 11 Feb 01:48:35 01:56:42 85° 100° (E) 02:04:36 437.405
Oscar 19 11 Feb 01:51:04 01:56:14 85° 105° (ESE) 02:01:22 437.125/150
KKS-1 11 Feb 02:03:02 02:07:11 39° 68° (ENE) 02:11:20 437.445
PHONESAT 2.4 11 Feb 02:04:02 02:06:37 21° 173° (S) 02:09:11 2401.200-2431.200
MOZHAYETS 4 11 Feb 02:06:59 02:10:12 19° 61° (ENE) 02:13:26
AO-7 11 Feb 02:11:01 02:14:24 13° 83° (E) 02:17:47 29.400- 29.500
ITUPSAT 1 11 Feb 02:14:06 02:18:17 30° 265° (W) 02:22:31 437.325
BEESAT 11 Feb 02:22:03 02:25:59 25° 266° (W) 02:29:57 436.000
Gurwin Techsat 1B 11 Feb 02:32:19 02:37:41 78° 104° (ESE) 02:43:00 435.225
DANDE 11 Feb 02:32:29 02:40:32 82° 282° (WNW) 02:49:05 436.750
BEESAT 3 11 Feb 02:32:51 02:35:41 19° 247° (WSW) 02:38:29 437.485
YUBILEINY 11 Feb 02:39:04 02:47:23 50° 88° (E) 02:55:45 435.215
JAS-2 11 Feb 02:50:02 02:55:35 49° 293° (WNW) 03:00:40 435.910
BEESAT 2 11 Feb 02:59:46 03:02:15 16° 248° (WSW) 03:04:42 435.950
ITAMSAT 1 11 Feb 03:02:40 03:07:56 78° 103° (ESE) 03:13:11 435.822/435.867
STARS 11 Feb 03:18:31 03:22:55 68° 258° (WSW) 03:27:18 437.465
HORYU 2 11 Feb 03:20:11 03:21:13 11° 87° (E) 03:22:16 437.375
Cosmos 2504 11 Feb 03:24:29 03:30:48 23° 76° (ENE) 03:37:14 435.465 / 435.565
AIST 2 11 Feb 03:26:19 03:30:26 68° 236° (SW) 03:34:31 435.215
Oscar 19 11 Feb 03:31:45 03:34:54 17° 304° (WNW) 03:38:03 437.125/150
CUSAT 1 11 Feb 03:33:12 03:39:51 27° 299° (WNW) 03:46:15 437.405
KKS-1 11 Feb 03:40:12 03:43:52 25° 266° (W) 03:47:34 437.445
PHONESAT 2.4 11 Feb 03:40:48 03:43:19 20° 189° (S) 03:45:48 2401.200-2431.200
MOZHAYETS 4 11 Feb 03:42:28 03:46:57 58° 259° (W) 03:51:31
Cosmos 2491 11 Feb 03:43:17 03:50:47 34° 277° (W) 03:58:18 435.465 / 435.565
AO-7 11 Feb 04:00:40 04:08:56 62° 104° (ESE) 04:17:07 29.400- 29.500
Gurwin Techsat 1B 11 Feb 04:13:25 04:17:02 19° 303° (WNW) 04:20:38 435.225
DANDE 11 Feb 04:18:23 04:24:48 24° 303° (WNW) 04:31:21 436.750
CUBESAT XI-V 11 Feb 04:26:52 04:31:23 48° 70° (ENE) 04:35:56 437.345
YUBILEINY 11 Feb 04:36:01 04:44:19 44° 291° (WNW) 04:52:43 435.215
M-CUBED/EXP-1 PRIME 11 Feb 04:40:44 04:44:06 66° 107° (ESE) 04:47:38 437.505
ITAMSAT 1 11 Feb 04:43:18 04:46:49 19° 303° (WNW) 04:50:21 435.822/435.867
SO-50 11 Feb 04:45:03 04:49:49 52° 122° (ESE) 04:54:39 436.795
AUBIESAT-1 11 Feb 04:49:14 04:52:39 69° 109° (ESE) 04:56:15 437.475
HORYU 2 11 Feb 04:53:58 04:58:27 89° 294° (WNW) 05:02:55 437.375
Cubesat XI-IV 11 Feb 05:06:38 05:09:01 13° 86° (E) 05:11:25 437.490
Cosmos 2504 11 Feb 05:14:18 05:23:00 90° 277° (W) 05:31:59 435.465 / 435.565
LilacSat-2 11 Feb 05:41:34 05:44:13 18° 92° (E) 05:46:53 437.200
STRAND 1 11 Feb 05:41:46 05:46:33 41° 67° (ENE) 05:51:22 437.568
AO-7 11 Feb 05:53:55 06:01:21 38° 305° (NW) 06:08:46 29.400- 29.500
CUBESAT XI-V 11 Feb 06:05:21 06:09:01 22° 268° (W) 06:12:42 437.345
GOMX 1 11 Feb 06:07:09 06:08:05 11° 85° (E) 06:08:59 467.674
M-CUBED/EXP-1 PRIME 11 Feb 06:17:14 06:18:23 11° 304° (NW) 06:19:33 437.505
AUBIESAT-1 11 Feb 06:25:41 06:26:51 11° 305° (NW) 06:28:01 437.475
SO-50 11 Feb 06:26:07 06:30:34 32° 322° (NW) 06:35:02 436.795
CUTE-I 11 Feb 06:30:17 06:35:40 65° 102° (ESE) 06:41:00 437.470
HORYU 2 11 Feb 06:32:24 06:34:21 13° 303° (WNW) 06:36:19 437.375
HO-68 11 Feb 06:41:26 06:43:15 11° 82° (E) 06:45:04 435.675
YUBILEINY 11 Feb 06:42:02 06:44:09 11° 318° (NW) 06:46:17 435.215
BRITE-PL 11 Feb 06:44:22 06:49:04 51° 98° (E) 06:53:23 437.365/2234.400
Cubesat XI-IV 11 Feb 06:44:30 06:49:55 84° 105° (ESE) 06:55:19 437.490
PRISM 11 Feb 06:59:00 07:03:09 69° 73° (ENE) 07:07:20 437.425
Cosmos 2504 11 Feb 07:10:50 07:17:42 25° 302° (WNW) 07:24:44 435.465 / 435.565
LilacSat-2 11 Feb 07:15:11 07:18:44 39° 290° (WNW) 07:22:16 437.200
DOVE 4 11 Feb 07:16:17 07:19:56 27° 94° (E) 07:23:29 437.250
STRAND 1 11 Feb 07:21:23 07:25:50 30° 265° (W) 07:30:21 437.568
O/OREOS (USA 219) 11 Feb 07:24:21 07:28:26 36° 107° (ESE) 07:32:35 437.305
COMPASS 1 11 Feb 07:36:54 07:38:16 11° 87° (E) 07:39:37 437.405
GOMX 1 11 Feb 07:42:27 07:46:57 84° 285° (WNW) 07:51:11 467.674
CUTE 1.7 + AOD 2 11 Feb 07:48:28 07:52:05 26° 94° (E) 07:55:42 437.475
AO-7 11 Feb 07:48:57 07:51:48 12° 330° (NNW) 07:54:39 29.400- 29.500
SEEDS 11 Feb 07:52:16 07:55:36 22° 93° (E) 07:58:56 437.485
CINEMA 3 11 Feb 07:59:15 08:02:49 27° 95° (E) 08:06:22 145.822/145.860
AAUSAT CUBESAT 2 11 Feb 08:02:48 08:05:40 18° 91° (E) 08:08:31 437.432
GONETS M04 11 Feb 08:04:58 08:12:52 41° 86° (E) 08:20:48
SO-50 11 Feb 08:10:15 08:12:35 13° 345° (NNW) 08:14:55 436.795
CUTE-I 11 Feb 08:11:12 08:15:15 22° 301° (WNW) 08:19:18 437.470
Cosmos 2499 11 Feb 08:20:33 08:27:12 25° 78° (ENE) 08:33:53 435.465 / 435.565
UNISAT 6 11 Feb 08:20:38 08:23:10 16° 60° (ENE) 08:25:42 437.425
BRITE-PL 11 Feb 08:23:34 08:27:10 21° 300° (WNW) 08:30:35 437.365/2234.400
HO-68 11 Feb 08:25:21 08:32:30 60° 102° (ESE) 08:39:34 435.675
Cubesat XI-IV 11 Feb 08:25:50 08:29:20 18° 304° (NW) 08:32:50 437.490
CANX-2 11 Feb 08:33:24 08:37:43 84° 102° (ESE) 08:42:01 2200.000
PRISM 11 Feb 08:37:03 08:38:58 13° 271° (W) 08:40:54 437.425
ZACube-1 11 Feb 08:44:10 08:46:52 16° 91° (E) 08:49:35 437.345
FUNcube-1 11 Feb 08:52:08 08:55:09 19° 92° (E) 08:58:12 145.935
DOVE 4 11 Feb 08:53:56 08:57:42 31° 293° (WNW) 09:01:22 437.250
QB50P1 11 Feb 08:59:10 08:59:40 10° 56° (NE) 09:00:11 145.935-145.965
ANTELSAT 11 Feb 09:03:54 09:07:52 38° 69° (ENE) 09:11:50 437.575/2403.000
O/OREOS (USA 219) 11 Feb 09:03:56 09:07:54 30° 306° (NW) 09:11:55 437.305
DELFI C3 11 Feb 09:04:08 09:06:57 18° 91° (E) 09:09:46 145.870
TIGRISAT 11 Feb 09:10:08 09:14:10 41° 70° (ENE) 09:18:11 435.000
COMPASS 1 11 Feb 09:10:09 09:14:24 79° 285° (WNW) 09:18:38 437.405
PCSat 11 Feb 09:13:22 09:15:23 12° 102° (ESE) 09:17:23 145.827
AIST 1 11 Feb 09:17:26 09:19:31 13° 83° (E) 09:21:35
Oscar 11 11 Feb 09:21:54 09:26:09 49° 99° (E) 09:30:22 145.826/435.025
GOMX 1 11 Feb 09:22:53 09:24:14 11° 305° (NW) 09:25:34 467.674
CUTE 1.7 + AOD 2 11 Feb 09:24:06 09:28:00 35° 292° (WNW) 09:31:53 437.475
SEEDS 11 Feb 09:27:29 09:31:29 40° 290° (WNW) 09:35:29 437.485
UWE-3 11 Feb 09:28:58 09:33:08 64° 102° (ESE) 09:37:23 435.000/436.395/437.385
CUBEBUG 2 11 Feb 09:31:41 09:35:54 88° 276° (W) 09:40:10 437.445
CINEMA 3 11 Feb 09:36:20 09:40:01 31° 292° (WNW) 09:43:40 145.822/145.860
AAUSAT CUBESAT 2 11 Feb 09:37:23 09:41:28 50° 289° (WNW) 09:45:32 437.432
BUGSAT 1 11 Feb 09:43:39 09:45:58 15° 60° (ENE) 09:48:15 437.445
AO-85 11 Feb 09:46:03 09:51:00 38° 117° (ESE) 09:56:04 145.980
POLYITAN 1 11 Feb 09:48:47 09:52:28 30° 67° (ENE) 09:56:09 437.675
QB50P2 11 Feb 09:49:17 09:53:01 31° 67° (ENE) 09:56:45 145.880/145.840
RS-15 11 Feb 09:51:48 10:00:00 25° 100° (E) 10:08:28 29.354- 29.394
SO-50 11 Feb 09:53:24 09:55:15 12° 10° (N) 09:57:04 436.795
UNISAT 6 11 Feb 09:55:10 09:59:26 65° 258° (WSW) 10:03:42 437.425
GONETS M04 11 Feb 10:01:06 10:09:31 52° 288° (WNW) 10:18:01
Cosmos 2499 11 Feb 10:10:28 10:19:17 85° 279° (W) 10:28:14 435.465 / 435.565
CANX-2 11 Feb 10:11:02 10:12:58 13° 301° (WNW) 10:14:53 2200.000
HO-68 11 Feb 10:13:34 10:19:52 34° 302° (WNW) 10:26:08 435.675
POPSAT HIP 1 11 Feb 10:18:06 10:22:15 57° 72° (ENE) 10:26:24 437.405
ZACube-1 11 Feb 10:19:23 10:23:30 54° 288° (WNW) 10:27:40 437.345
NANOSAT C BR1 11 Feb 10:21:43 10:25:53 61° 72° (ENE) 10:30:02 145.865
DUCHIFAT 1 11 Feb 10:22:23 10:26:32 59° 72° (ENE) 10:30:41 145.980
HUMSAT D 11 Feb 10:23:39 10:27:45 53° 100° (E) 10:31:52 437.325/437.525
FUNcube-1 11 Feb 10:27:37 10:31:40 46° 289° (WNW) 10:35:45 145.935
QB50P1 11 Feb 10:30:30 10:34:43 77° 74° (ENE) 10:38:58 145.935-145.965
50 SAT 11 Feb 10:31:47 10:34:04 15° 91° (E) 10:36:20 437.505
VELOX 1 11 Feb 10:37:39 10:40:24 16° 90° (E) 10:43:09 145.980
DELFI C3 11 Feb 10:38:14 10:42:07 45° 289° (WNW) 10:45:59 145.870
ANTELSAT 11 Feb 10:41:16 10:44:44 23° 266° (W) 10:48:10 437.575/2403.000
CUSAT 1 11 Feb 10:42:55 10:46:00 14° 50° (NE) 10:48:43 437.405
TIGRISAT 11 Feb 10:47:47 10:51:04 21° 267° (W) 10:54:20 435.000
COMPASS 1 11 Feb 10:48:33 10:49:15 10° 303° (WNW) 10:49:57 437.405
AIST 1 11 Feb 10:52:08 10:56:31 69° 281° (W) 11:00:57
PCSat 11 Feb 10:52:26 10:57:49 75° 121° (ESE) 11:03:17 145.827
AISAT 11 Feb 10:54:00 10:57:37 24° 94° (E) 11:01:11 437.250
UKube-1 11 Feb 10:57:31 11:00:57 22° 94° (E) 11:04:20 .
Oscar 11 11 Feb 10:58:46 11:01:58 20° 297° (WNW) 11:05:09 145.826/435.025
UWE-3 11 Feb 11:06:43 11:09:10 15° 299° (WNW) 11:11:40 435.000/436.395/437.385
CUBEBUG 1 11 Feb 11:08:37 11:12:22 27° 95° (E) 11:16:05 437.445
CUBEBUG 2 11 Feb 11:10:41 11:11:54 11° 302° (WNW) 11:13:06 437.445
DX 1 11 Feb 11:12:12 11:16:14 36° 97° (E) 11:20:15 434.975-435.025
BUGSAT 1 11 Feb 11:16:41 11:20:52 68° 257° (WSW) 11:25:02 437.445
JAS-2 11 Feb 11:20:32 11:26:11 25° 58° (ENE) 11:31:24 435.910
ESTCUBE 1 11 Feb 11:22:11 11:26:38 50° 100° (E) 11:31:02 437.505/2401.250
POLYITAN 1 11 Feb 11:24:33 11:28:16 29° 264° (W) 11:31:59 437.675
QB50P2 11 Feb 11:25:09 11:28:50 28° 265° (W) 11:32:32 145.880/145.840
AO-85 11 Feb 11:26:15 11:31:31 47° 316° (NW) 11:36:50 145.980
DANDE 11 Feb 11:29:04 11:34:39 23° 55° (NE) 11:39:19 436.750
Oscar 19 11 Feb 11:33:11 11:37:28 27° 62° (ENE) 11:41:46 437.125/150
SO-50 11 Feb 11:33:22 11:37:28 26° 34° (NE) 11:41:27 436.795
POPSAT HIP 1 11 Feb 11:55:49 11:58:25 16° 270° (W) 12:01:00 437.405
RS-15 11 Feb 11:59:20 12:10:32 83° 124° (SE) 12:22:25 29.354- 29.394
NANOSAT C BR1 11 Feb 11:59:38 12:02:01 15° 270° (W) 12:04:25 145.865
DUCHIFAT 1 11 Feb 12:00:11 12:02:38 15° 270° (W) 12:05:05 145.980
HUMSAT D 11 Feb 12:00:14 12:03:03 18° 298° (WNW) 12:05:51 437.325/437.525
50 SAT 11 Feb 12:04:41 12:08:21 48° 289° (WNW) 12:12:02 437.505
GONETS M04 11 Feb 12:05:17 12:08:56 13° 314° (NW) 12:12:38
Cosmos 2499 11 Feb 12:07:04 12:13:49 24° 302° (WNW) 12:20:37 435.465 / 435.565
QB50P1 11 Feb 12:09:34 12:11:03 12° 272° (W) 12:12:33 145.935-145.965
VELOX 1 11 Feb 12:12:55 12:17:18 60° 288° (WNW) 12:21:37 145.980
Gurwin Techsat 1B 11 Feb 12:18:13 12:22:38 27° 62° (ENE) 12:27:04 435.225
CUSAT 1 11 Feb 12:23:43 12:29:50 78° 77° (ENE) 12:34:21 437.405
AISAT 11 Feb 12:30:07 12:34:15 39° 292° (WNW) 12:38:20 437.250
UKube-1 11 Feb 12:33:06 12:37:10 41° 291° (WNW) 12:41:13 .
PCSat 11 Feb 12:37:17 12:41:48 26° 322° (NW) 12:46:20 145.827
SPROUT 11 Feb 12:39:04 12:43:22 88° 108° (ESE) 12:47:37 437.525
TISAT 1 11 Feb 12:41:27 12:45:19 35° 97° (E) 12:49:09 437.305
YUBILEINY 11 Feb 12:44:45 12:52:21 30° 62° (ENE) 12:59:51 435.215
CUBEBUG 1 11 Feb 12:44:46 12:48:43 34° 293° (WNW) 12:52:38 437.445
ITAMSAT 1 11 Feb 12:45:57 12:50:12 26° 61° (ENE) 12:54:29 435.822/435.867
DX 1 11 Feb 12:48:40 12:52:18 26° 296° (WNW) 12:55:56 434.975-435.025
ESTCUBE 1 11 Feb 12:59:41 13:03:08 22° 298° (WNW) 13:06:34 437.505/2401.250
Cosmos 2491 11 Feb 13:00:41 13:04:25 14° 70° (ENE) 13:08:09 435.465 / 435.565
JAS-2 11 Feb 13:03:02 13:10:38 83° 255° (WSW) 13:17:29 435.910
AO-85 11 Feb 13:09:46 13:13:23 17° 339° (NNW) 13:16:58 145.980
DANDE 11 Feb 13:11:30 13:18:45 78° 262° (W) 13:24:11 436.750
Oscar 19 11 Feb 13:11:33 13:16:33 48° 260° (W) 13:21:35 437.125/150
AO-7 11 Feb 13:12:27 13:19:26 31° 51° (NE) 13:26:24 29.400- 29.500
Cosmos 2504 11 Feb 13:13:06 13:15:27 11° 42° (NE) 13:17:48 435.465 / 435.565
SO-50 11 Feb 13:13:36 13:18:27 71° 235° (SW) 13:23:07 436.795
SWISSCUBE 11 Feb 13:32:52 13:36:59 27° 94° (E) 13:41:04 437.505
Gurwin Techsat 1B 11 Feb 13:57:11 14:02:20 50° 261° (W) 14:07:31 435.225
M-CUBED/EXP-1 PRIME 11 Feb 13:58:26 14:00:29 15° 58° (ENE) 14:02:31 437.505
AUBIESAT-1 11 Feb 14:06:30 14:08:35 15° 58° (ENE) 14:10:39 437.475
CUSAT 1 11 Feb 14:07:50 14:10:51 15° 284° (WNW) 14:13:29 437.405
ITUPSAT 1 11 Feb 14:10:19 14:15:03 54° 100° (E) 14:19:46 437.325
RS-15 11 Feb 14:13:29 14:24:17 45° 333° (NNW) 14:35:42 29.354- 29.394
SPROUT 11 Feb 14:17:00 14:18:42 12° 302° (WNW) 14:20:23 437.525
TISAT 1 11 Feb 14:17:26 14:20:51 25° 295° (WNW) 14:24:15 437.305
BEESAT 11 Feb 14:17:31 14:22:19 64° 102° (ESE) 14:27:04 436.000
HORYU 2 11 Feb 14:20:39 14:23:28 17° 60° (ENE) 14:26:19 437.375
ITAMSAT 1 11 Feb 14:24:22 14:29:24 51° 260° (W) 14:34:30 435.822/435.867
PCSat 11 Feb 14:25:53 14:27:13 11° 347° (NNW) 14:28:34 145.827
YUBILEINY 11 Feb 14:41:12 14:50:02 73° 266° (W) 14:58:46 435.215
ISS 11 Feb 14:42:00 14:43:51 14° 136° (SE) 14:45:43 145.825
Cosmos 2491 11 Feb 14:50:50 14:59:23 64° 92° (E) 15:07:57 435.465 / 435.565
JAS-2 11 Feb 14:51:39 14:56:26 18° 273° (W) 15:00:59 435.910
AO-85 11 Feb 14:53:43 14:56:07 13° 3° (N) 14:58:27 145.980
DANDE 11 Feb 14:56:48 15:00:03 14° 287° (WNW) 15:02:58 436.750
SO-50 11 Feb 14:57:18 14:58:00 10° 254° (WSW) 14:58:42 436.795
AO-7 11 Feb 15:03:06 15:11:29 79° 252° (WSW) 15:19:55 29.400- 29.500
Cosmos 2504 11 Feb 15:03:33 15:11:47 44° 69° (ENE) 15:19:30 435.465 / 435.565
STARS 11 Feb 15:05:33 15:08:26 17° 91° (E) 15:11:19 437.465
SWISSCUBE 11 Feb 15:10:24 15:14:54 40° 293° (WNW) 15:19:23 437.505
KKS-1 11 Feb 15:26:44 15:31:02 48° 100° (E) 15:35:18 437.445
M-CUBED/EXP-1 PRIME 11 Feb 15:31:29 15:34:55 45° 254° (WSW) 15:38:11 437.505
MOZHAYETS 4 11 Feb 15:34:18 15:38:13 26° 93° (E) 15:42:07
AUBIESAT-1 11 Feb 15:39:32 15:42:56 44° 254° (WSW) 15:46:13 437.475
ITUPSAT 1 11 Feb 15:48:52 15:52:34 22° 299° (WNW) 15:56:15 437.325
O/OREOS (USA 219) 11 Feb 15:51:51 15:55:14 20° 48° (NE) 15:58:36 437.305
HORYU 2 11 Feb 15:55:13 15:59:36 64° 258° (WSW) 16:04:00 437.375
BEESAT 11 Feb 15:56:17 15:59:39 19° 300° (WNW) 16:03:01 436.000
PCSat 11 Feb 16:11:42 16:13:19 11° 14° (NNE) 16:14:56 145.827
ISS 11 Feb 16:16:36 16:19:51 76° 153° (SSE) 16:23:06 145.825
CUTE-I 11 Feb 16:17:10 16:21:23 24° 60° (ENE) 16:25:37 437.470
BRITE-PL 11 Feb 16:21:41 16:24:59 16° 57° (ENE) 16:28:14 437.365/2234.400
BEESAT 3 11 Feb 16:26:16 16:29:45 29° 117° (ESE) 16:33:15 437.485
LilacSat-2 11 Feb 16:27:30 16:29:53 16° 63° (ENE) 16:32:16 437.200
RS-15 11 Feb 16:30:03 16:40:35 35° 7° (N) 16:51:28 29.354- 29.394
Cubesat XI-IV 11 Feb 16:31:01 16:35:38 31° 63° (ENE) 16:40:16 437.490
AO-85 11 Feb 16:34:33 16:38:40 22° 28° (NNE) 16:42:35 145.980
YUBILEINY 11 Feb 16:40:13 16:45:11 17° 288° (WNW) 16:50:09 435.215
STARS 11 Feb 16:40:53 16:45:10 55° 289° (WNW) 16:49:26 437.465
Cosmos 2491 11 Feb 16:49:06 16:56:49 34° 295° (WNW) 17:04:35 435.465 / 435.565
BEESAT 2 11 Feb 16:53:50 16:57:32 36° 119° (ESE) 17:01:16 435.950
Cosmos 2504 11 Feb 16:57:07 17:05:16 48° 273° (W) 17:12:55 435.465 / 435.565
AO-7 11 Feb 17:00:12 17:05:35 18° 273° (W) 17:11:01 29.400- 29.500
KKS-1 11 Feb 17:03:58 17:07:19 21° 298° (WNW) 17:10:40 437.445
MOZHAYETS 4 11 Feb 17:11:10 17:15:31 39° 292° (WNW) 17:19:50
HO-68 11 Feb 17:13:38 17:17:45 16° 45° (NE) 17:21:52 435.675
GOMX 1 11 Feb 17:16:20 17:20:25 23° 63° (ENE) 17:24:20 467.674
AIST 2 11 Feb 17:30:20 17:31:06 10° 108° (ESE) 17:31:52 435.215
O/OREOS (USA 219) 11 Feb 17:30:32 17:35:05 65° 248° (WSW) 17:39:38 437.305
STRAND 1 11 Feb 17:52:13 17:52:30 10° 85° (E) 17:52:46 437.568
ISS 11 Feb 17:53:21 17:56:28 42° 353° (N) 17:59:35 145.825
PCSat 11 Feb 17:54:01 17:58:40 28° 39° (NE) 18:03:18 145.827
CUTE-I 11 Feb 17:55:49 18:01:04 58° 259° (W) 18:06:22 437.470
CANX-2 11 Feb 17:56:46 17:58:14 12° 58° (ENE) 17:59:42 2200.000
BRITE-PL 11 Feb 17:57:03 18:02:45 84° 75° (ENE) 18:08:14 437.365/2234.400
CUBESAT XI-V 11 Feb 17:57:04 18:01:48 75° 102° (ESE) 18:06:29 437.345
LilacSat-2 11 Feb 18:00:11 18:03:52 48° 261° (W) 18:07:35 437.200
BEESAT 3 11 Feb 18:03:44 18:07:26 36° 316° (NW) 18:11:10 437.485
Cosmos 2499 11 Feb 18:08:17 18:10:41 11° 43° (NE) 18:13:03 435.465 / 435.565
GONETS M04 11 Feb 18:10:20 18:17:22 26° 59° (ENE) 18:24:23
Cubesat XI-IV 11 Feb 18:10:28 18:15:33 44° 262° (W) 18:20:40 437.490
AO-85 11 Feb 18:14:48 18:20:06 77° 50° (NE) 18:24:56 145.980
DOVE 4 11 Feb 18:24:12 18:28:58 46° 70° (ENE) 18:33:29 437.250
COMPASS 1 11 Feb 18:31:09 18:33:08 13° 59° (ENE) 18:35:07 437.405
BEESAT 2 11 Feb 18:31:52 18:35:29 31° 318° (NW) 18:39:08 435.950
RS-15 11 Feb 18:44:24 18:56:15 58° 39° (NE) 19:08:22 29.354- 29.394
CUTE 1.7 + AOD 2 11 Feb 18:44:27 18:48:05 28° 66° (ENE) 18:51:44 437.475
SEEDS 11 Feb 18:47:26 18:50:47 24° 65° (ENE) 18:54:11 437.485
GOMX 1 11 Feb 18:52:52 18:58:10 59° 260° (W) 19:03:12 467.674
AAUSAT CUBESAT 2 11 Feb 18:56:39 18:59:36 19° 63° (ENE) 19:02:34 437.432
HO-68 11 Feb 18:57:05 19:04:08 63° 67° (ENE) 19:11:14 435.675
CUBEBUG 2 11 Feb 18:58:52 19:01:07 14° 60° (ENE) 19:03:22 437.445
CINEMA 3 11 Feb 19:03:51 19:08:04 39° 69° (ENE) 19:12:08 145.822/145.860
AIST 2 11 Feb 19:04:43 19:08:54 83° 126° (SE) 19:13:05 435.215
STRAND 1 11 Feb 19:27:24 19:32:36 72° 103° (ESE) 19:37:45 437.568
CANX-2 11 Feb 19:29:12 19:33:25 89° 53° (NE) 19:37:41 2200.000
ISS 11 Feb 19:30:06 19:33:17 50° 13° (NNE) 19:36:28 145.825
CUBESAT XI-V 11 Feb 19:35:45 19:38:38 16° 301° (WNW) 19:41:29 437.345
PCSat 11 Feb 19:37:08 19:42:33 68° 240° (WSW) 19:47:55 145.827
BRITE-PL 11 Feb 19:38:18 19:41:48 17° 272° (W) 19:45:13 437.365/2234.400
ZACube-1 11 Feb 19:43:27 19:46:31 20° 64° (ENE) 19:49:34 437.345
BEESAT 3 11 Feb 19:45:38 19:46:20 10° 338° (NNW) 19:47:02 437.485
FUNcube-1 11 Feb 19:51:08 19:54:24 23° 65° (ENE) 19:57:40 145.935
DELFI C3 11 Feb 19:54:04 19:56:47 18° 63° (ENE) 19:59:31 145.870
